This is the latest recevied weather packets stored in our database for station/object HB9TJR-3. If no packets are shown the sender has not sent any weather packets the latest 10 day(s).
| Time | Temp. | Humidity | Pressure | Rain* | Wind** | Luminosity | Snow |
|---|---|---|---|---|---|---|---|
| 1787924131 | 16.67° C | 80% | 867.6 hPa | 0 mm | - | - | - |
| 1787923778 | 16.11° C | 78% | 867.8 hPa | 0 mm | - | - | - |
| 1787923174 | 16.11° C | 78% | 867.8 hPa | 0 mm | - | - | - |
| 1787923171 | 16.11° C | 78% | 867.8 hPa | 0 mm | - | - | - |
| 1787922215 | 16.11° C | 81% | 867.8 hPa | 0 mm | - | - | - |
| 1787922211 | 16.11° C | 81% | 867.8 hPa | 0 mm | - | - | - |
| 1787921261 | 16.11° C | 80% | 867.7 hPa | 0 mm | - | - | - |
| 1787921251 | 16.11° C | 80% | 867.7 hPa | 0 mm | - | - | - |
| 1787920291 | 16.11° C | 83% | 867.6 hPa | 0 mm | - | - | - |
| 1787919336 | 15.56° C | 83% | 867.6 hPa | 0 mm | - | - | - |
| 1787919331 | 15.56° C | 83% | 867.6 hPa | 0 mm | - | - | - |
| 1787918992 | 15° C | 84% | 868 hPa | 0 mm | - | - | - |
| 1787918371 | 15° C | 84% | 868 hPa | 0 mm | - | - | - |
| 1787917450 | 15° C | 83% | 868 hPa | 0 mm | - | - | - |
| 1787917416 | 15° C | 83% | 868 hPa | 0 mm | - | - | - |
| 1787917411 | 15° C | 83% | 868 hPa | 0 mm | - | - | - |
| 1787916455 | 14.44° C | 87% | 868.2 hPa | 0 mm | - | - | - |
| 1787916451 | 14.44° C | 87% | 868.2 hPa | 0 mm | - | - | - |
| 1787916029 | 13.89° C | 90% | 868 hPa | 0 mm | - | - | - |
| 1787915495 | 13.89° C | 90% | 868 hPa | 0 mm | - | - | - |
| 1787915491 | 13.89° C | 90% | 868 hPa | 0 mm | - | - | - |
| 1787914532 | 13.33° C | 91% | 867.4 hPa | 0 mm | - | - | - |
| 1787914218 | 12.78° C | 87% | 867.3 hPa | 0 mm | - | - | - |
| 1787913571 | 12.78° C | 87% | 867.3 hPa | 0 mm | - | - | - |
| 1787913210 | 13.33° C | 91% | 867.7 hPa | 0 mm | - | - | - |
* Rain latest hour (hover to see other rain measurements)
** Current wind speed in m/s (hover to see current wind gust speed)